Location: ????????
(56.1167°N, 38.6333°E)
Time: 21:52:21
(UTC+00:00)

NOSS 3-3 (C) - Pass Details

Date: 18 November 2025
Orbit: 705 x 1508 km, 63.4° (Epoch: 30 November)

Event Time Altitude Azimuth Distance (km) Brightness Sun altitude
Rises 14:03:06 0° 249° (WSW) 3,308 9.4 -7.0°
Reaches altitude 10° 14:05:22 10° 253° (WSW) 2,458 7.9 -7.3°
Maximum altitude 14:11:01 63° 334° (NNW) 1,065 4.3 -8.0°
Drops below altitude 10° 14:17:57 10° 56° (NE) 2,995 5.9 -8.9°
Enters shadow 14:18:00 10° 56° (NE) 3,010 5.9 -8.9°
